Retour au catalogue

SCOUT G-1 DEB

ActifPO
NORAD 22707·DEBRIS·🇺🇸 United States

Lancé Jun 25, 1993 depuis Vandenberg Space Force Base

Loading…

Prochains Passages (prochaines 24 heures)

TLE

FraisSource: Space-Track

Époque: Sep 14, 2026, 01:59 UTC

1 22707U 93041D   26257.08286254  .00000411  00000-0  14665-3 0  9993
2 22707  90.1327 301.3794 0137434   2.5420 357.6442 14.27744946722228

Suivez SCOUT G-1 DEB en temps réel avec AllMySat

Download on the App Store